Regional Weather Roundup
Issued by NWS Upton, NY

Current Version | Previous Version | Graphics & Text | Print | Product List | Glossary Off
Versions: 1 2 3 4 5 6 7 8 9 10 11 12 13 14 15 16 17 18 19 20 21 22 23 24 25 26 27 28 29 30 31 32 33 34 35 36 37 38 39 40 41 42 43 44 45 46 47 48 49 50

000
ASUS41 KOKX 310405
RWROKX

REGIONAL WEATHER ROUNDUP
NATIONAL WEATHER SERVICE NEW YORK NY
1200 AM EDT TUE MAY 31 2016

NOTE: "FAIR" INDICATES FEW OR NO CLOUDS BELOW 12,000 FEET WITH NO
SIGNIFICANT WEATHER AND/OR OBSTRUCTIONS TO VISIBILITY.

NYZ071-072-176-178-NJZ106-104-310500-
NEW YORK CITY METRO AREA


CITY           SKY/WX    TMP DP  RH WIND       PRES   REMARKS
CENTRAL PARK   MOCLDY    73  66  78 VRB6      29.98S
LAGUARDIA APRT CLOUDY    74  72  93 SW12      29.95S
KENNEDY INTL   CLOUDY    67  64  90 S8        29.97F
NEWARK/LIBERTY CLOUDY    73  68  84 SW13      29.95S
BRNX BOT. GARD   N/A     73  66  78 S8        29.98R
TETERBORO      CLOUDY    74  66  76 SW7       29.94S
$$

NYZ177-179-078>081-310500-
LONG ISLAND NEW YORK

CITY           SKY/WX    TMP DP  RH WIND       PRES   REMARKS
FARMINGDALE    CLOUDY    68  65  90 SW8       29.97S
ISLIP          NOT AVBL
SHIRLEY        CLOUDY    66  65  96 S7        29.97F
RIVERHEAD        N/A     68  66  94 CALM      29.95S
WESTHAMPTON    CLOUDY    65  64  97 SW10      29.98F
EAST HAMPTON   CLOUDY    66  64  96 SW10G20   29.96F
MONTAUK POINT    N/A     65  64  97 SW8       29.97F
$$

NYZ052-065-067-310500-
HUDSON VALLEY

CITY           SKY/WX    TMP DP  RH WIND       PRES   REMARKS
WHITE PLAINS   CLOUDY    69  67  93 VRB3      29.95F
NEWBURGH       CLEAR     70  64  83 W7        29.96S
MONTGOMERY     CLOUDY    69  64  84 SW5       29.94F
POUGHKEEPSIE   CLOUDY    74  63  68 CALM      29.92F
ALBANY         MOCLDY    66  63  90 S6        29.92S
$$

NJZ001-105-106-008-010-013-015-019>022-104-310500-
NEW JERSEY

CITY           SKY/WX    TMP DP  RH WIND       PRES   REMARKS
NEWARK/LIBERTY CLOUDY    73  68  84 SW13      29.95S
TETERBORO      CLOUDY    74  66  76 SW7       29.94S
CALDWELL       CLOUDY    74  67  78 VRB5      29.96S
MORRISTOWN     CLOUDY    73  66  78 SW6       29.96F
SOMERVILLE     CLOUDY    72  68  87 CALM      29.95R
SUSSEX         CLOUDY    66  64  93 CALM      29.96F
ANDOVER          N/A     68  66  93 CALM      29.97F
TRENTON        CLOUDY    71  67  87 S8        29.96F
MILLVILLE      CLOUDY    69  67  93 CALM      29.98F
ATLANTIC CITY  CLOUDY    68  68 100 S5        29.98F VSB 1/2
WRIGHTSTOWN    NOT AVBL
TOMS RIVER     CLOUDY    68  64  88 S6        29.97F
BELMAR         CLOUDY    68  67  96 SW7       29.98F
$$

PAZ047>061-062-071-310500-
EASTERN PENNSYLVANIA

CITY           SKY/WX    TMP DP  RH WIND       PRES   REMARKS
PHILADELPHIA   CLOUDY    71  67  87 S10       29.98S
ALLENTOWN      CLOUDY    69  63  81 CALM      29.96S
SCRANTON       CLOUDY    63  62  97 SE3       29.98F
$$

CTZ002-004>006-009-010-012-RIZ004-006-007-MAZ004-011-015-310500-
SOUTHERN NEW ENGLAND
 IN CT

CITY           SKY/WX    TMP DP  RH WIND       PRES   REMARKS
BRADLEY INTL   CLOUDY    72  68  87 S9        29.91S
HARTFORD       CLOUDY    73  68  84 S12       29.92S
DANBURY        CLOUDY    71  68  90 S5        29.96S
WTRBRY/OXFORD    N/A     70  64  83 SW7       29.97R
BRIDGEPORT     CLOUDY    69  65  86 SW6       29.95S
MERIDEN        CLOUDY    71  67  87 S7        29.94F
NEW HAVEN      CLOUDY    67  65  93 SW5       29.95F
CHESTER        MOCLDY    68  68 100 VRB7      29.96S
GROTON         MOCLDY    68  67  96 W7        29.94F
WILLIMANTIC    CLOUDY    72  67  84 SW8       29.93F

 IN RI

CITY           SKY/WX    TMP DP  RH WIND       PRES   REMARKS
PROVIDENCE     CLOUDY    70  66  87 W8        29.93S
BLOCK ISLAND   LGT RAIN  59  58  96 S13       29.97F VSB 1/2
WESTERLY       CLOUDY    67  63  87 SW8       29.95F

 IN MA

CITY           SKY/WX    TMP DP  RH WIND       PRES   REMARKS
BOSTON         CLOUDY    68  66  93 SW12      29.89S
WORCESTER      CLOUDY    68  65  90 SW13      29.93S
WESTFIELD      CLOUDY    66  63  90 CALM      29.91F
PROVINCETOWN   CLOUDY    62  62 100 S14       29.92S FOG
NANTUCKET      LGT RAIN  62  60  93 SW13      29.97F VSB 3/4
$$

ANZ330-335-338-340-345-350-353-355-310500-
COASTAL MARINE OBSERVATIONS


STATION/POSITION TIME  SKY/WX   TEMP    WIND        PRES    VSBY  WAVE
                                AIR SEA DIR/SP/G                  HT/PER
                 (UTC)          (F)     (DEG/KT/KT) (MB)    (MI)  (FT/S)
NY HARB ENTRANCE 0250            63 58  210/ 14/ 16 1014.3          3/ 6
20S FIRE ISLAND  0250            63 61  210/ 14/ 14 1014.8          4/ 7
GREAT SOUTH BAY  0300            66 70  230/ 12/ 16   N/A
23 SSW MONTAUK P 0350            61 59  250/  8/ 10 1014.5          3/ 7
15 E BARNEGAT LI 0322               61                N/A           4/ 7
HUDSON CANYON    0250            64 59              1015.7          4/ 7
KINGS POINT      0300               61                N/A
EXECUTION ROCKS  NOT AVBL
CENTRAL LI SOUND 0300            66     210/ 10/ 12   N/A           2/ 3
EASTERN LI SOUND NOT AVBL
ROBBINS REEF     0300            72                   N/A
$$


>>>>>>>>>>>>>>>>>>>>>>>>>>>> KEY <<<<<<<<<<<<<<<<<<<<<<<<<<<
>                                                          <
>     SKY/WX - SKY CONDITION/PRESENT WEATHER               <
>     TMP    - TEMPERATURE IN FAHRENHEIT                   <
>     DP     - DEWPOINT IN FAHRENHEIT                      <
>     RH     - RELATIVE HUMIDITY IN PERCENT                <
>     WIND   - DIRECTION AND SPEED IN MPH                  <
>     PRES   - MEAN SEA LEVEL PRESSURE IN INCHES OF HG     <
>     WCI    - WIND CHILL INDEX                            <
>     VSB    - VISIBILITY IN MILES                         <
>     HX     - HEAT INDEX                                  <
>     TC     - TEMPERATURE IN CELSIUS                      <
>     VRB    - VARIABLE WIND DIRECTION                     <
>                                                          <
>>>>>>>>>>>>>>>>>>>>>>>>>>>> KEY <<<<<<<<<<<<<<<<<<<<<<<<<<<





USA.gov is the U.S. government's official web portal to all federal, state and local government web resources and services.